EDT,Max TemperatureF,Mean TemperatureF,Min TemperatureF,Max Dew PointF,MeanDew PointF,Min DewpointF,Max Humidity, Mean Humidity, Min Humidity, Max Sea Level PressureIn, Mean Sea Level PressureIn, Min Sea Level PressureIn, Max VisibilityMiles, Mean VisibilityMiles, Min VisibilityMiles, Max Wind SpeedMPH, Mean Wind SpeedMPH, Max Gust SpeedMPH,PrecipitationIn, CloudCover, Events, WindDirDegrees
2012-3-1,40,36,33,39,35,30,100,96,75,29.91,29.82,29.69,10,10,10,25,17,32,0.00,6,,261
2012-3-2,57,45,33,58,43,33,100,100,99,29.83,29.46,29.22,10,9,1,44,14,51,1.08,6,Rain-Thunderstorm,83
2012-3-3,35,32,29,36,31,28,100,97,86,29.86,29.76,29.60,10,9,4,26,22,43,0.00,8,Snow,273
2012-3-4,34,30,27,32,29,27,100,97,84,29.93,29.86,29.82,10,10,2,15,10,,0.00,7,Snow,281
2012-3-5,34,29,24,30,25,10,100,88,36,30.41,30.20,29.94,10,9,4,14,9,24,0.00,6,Snow,325
2012-3-6,64,46,29,30,26,19,99,52,24,30.37,30.19,30.07,10,10,10,25,15,34,0.01,1,,184
2012-3-7,65,56,48,47,31,19,60,37,26,30.16,30.08,29.95,10,10,10,31,20,46,0.85,2,,201
2012-3-8,61,47,31,61,49,27,100,94,55,30.28,29.98,29.86,10,9,3,30,21,39,0.24,7,Rain,255
2012-3-9,40,32,24,33,14,-2,100,53,17,30.56,30.43,30.25,10,10,10,23,14,28,0.00,0,,320
2012-3-10,54,38,23,28,19,8,99,56,19,30.55,30.45,30.33,10,10,10,20,8,22,0.00,0,,168
2012-3-11,69,52,34,38,26,15,79,46,13,30.35,30.28,30.17,10,10,10,15,9,20,0.00,1,,190
2012-3-12,70,60,50,66,56,32,100,92,41,30.12,29.96,29.81,10,10,10,29,16,41,0.08,6,Rain,188
2012-3-13,72,57,43,60,45,25,100,70,21,30.12,30.06,29.94,10,10,7,15,7,,0.00,1,,255
2012-3-14,81,65,49,67,53,36,100,74,20,30.13,30.07,30.00,10,10,10,17,10,18,0.00,1,,198
2012-3-15,80,70,61,71,63,53,100,84,39,30.07,30.03,29.99,10,10,10,22,12,28,0.00,1,,228
2012-3-16,80,66,53,66,56,48,100,79,33,30.13,30.08,30.05,10,10,6,12,8,,0.00,0,,203
2012-3-17,76,63,50,68,56,50,100,88,41,30.16,30.11,30.05,10,8,2,13,7,,0.00,1,,155
2012-3-18,80,69,59,68,60,42,100,87,26,30.13,30.07,30.01,10,10,8,15,8,17,0.01,5,Rain,203
2012-3-19,82,71,60,70,59,46,100,73,28,30.08,30.04,29.99,10,10,10,16,10,23,0.00,3,,193
2012-3-20,83,71,59,63,54,45,100,58,26,30.12,30.07,30.01,10,10,10,16,10,23,0.00,2,,161
2012-3-21,86,72,59,61,53,43,100,61,22,30.15,30.10,30.04,10,10,10,15,8,21,0.00,0,,156
2012-3-22,83,71,59,64,57,45,100,69,26,30.14,30.08,30.03,10,10,9,18,7,21,0.00,2,,174
2012-3-23,64,60,53,65,61,54,100,100,88,30.06,29.96,29.83,10,8,2,17,8,28,0.75,7,Rain-Thunderstorm,148
2012-3-24,66,58,51,62,55,52,100,97,68,29.89,29.84,29.74,10,10,5,15,7,,0.27,7,Rain-Thunderstorm,277
2012-3-25,71,62,52,62,55,49,100,94,48,30.08,29.95,29.89,10,9,6,14,8,21,0.00,6,,333
2012-3-26,52,46,40,52,34,18,100,67,29,30.35,30.26,30.09,10,10,10,17,10,,0.00,1,,52
2012-3-27,63,48,33,36,24,17,67,43,23,30.33,30.16,29.92,10,10,10,17,13,25,0.00,0,,146
2012-3-28,71,60,47,60,36,8,100,47,9,30.02,29.89,29.81,10,10,10,31,17,39,0.00,1,,292
2012-3-29,59,46,35,44,36,28,100,66,32,30.13,30.05,29.99,10,10,10,14,4,,0.00,2,,60
2012-3-30,72,56,42,62,48,36,100,91,54,29.99,29.86,29.67,10,10,6,23,12,29,0.08,6,Rain,76
2012-3-31,51,46,40,48,44,41,100,99,84,29.98,29.92,29.85,10,6,2,10,8,,0.00,7,,40